Regional Weather Roundup
Issued by NWS

Home | Current Version | Previous Version | Graphics & Text | Print | Product List | Glossary On
Versions: 1 2 3 4 5 6 7 8 9 10 11 12 13 14 15 16 17 18 19 20 21 22 23 24 25 26 27 28 29 30 31 32 33 34 35 36 37 38 39 40 41 42 43 44 45 46 47 48 49 50
000
ASUS45 KTFX 191904
RWRMT
MONTANA HOURLY WEATHER ROUNDUP
NATIONAL WEATHER SERVICE GREAT FALLS MT
1204 PM MST FRI DEC 19 2014

NOTE: "FAIR" INDICATES FEW OR NO CLOUDS BELOW 12000 FEET WITH NO
SIGNIFICANT WEATHER AND/OR OBSTRUCTIONS TO VISIBILITY.

* THESE STATIONS ARE NOT UNDER NWS QUALITY CONTROL. THEY DO NOT
   REPORT WEATHER SUCH AS PRECIPITATION OR FOG.

MTZ001>007-043-192000-
WEST OF THE DIVIDE
CITY           SKY/WX    TMP DP  RH WIND       PRES   REMARKS
KALISPELL      LGT SNOW  34  34 100 CALM      29.88F VSB 2
MISSOULA       CLOUDY    34  28  79 CALM      29.93F
BUTTE          PTCLDY    32  23  69 N6        29.93F WCI  26
MULLAN PASS    SNOW      32  28  85 VRB5      29.83F VSB M1/4 WCI  27
* ESSEX        N/A       33  31  92 W1         N/A
* LINCOLN      N/A       31  26  82 S2         N/A
* LOOKOUT PASS N/A       33  33 100 S2         N/A
* POLSON       N/A       36  35  96 E1         N/A
* RONAN APT    PTSUNNY   34  32  92 N/A        N/A
* SEELEY LAKE  N/A       31  28  89 S1         N/A
* THOMP F APT  CLOUDY    26  24  92 SE6G11     N/A   WCI  19
$$

MTZ008-052>055-192000-
SOUTHWEST MONTANA
CITY           SKY/WX    TMP DP  RH WIND       PRES   REMARKS
BOZEMAN        PTSUNNY   30  23  75 SE3       29.93F
DILLON         PTSUNNY   34  27  76 CALM      29.95F
* W YELLOWSTON PTCLDY    30  25  82 S3G9       N/A
* THREE FORKS  PTCLDY    43  43 100 SW10G20    N/A
* BOULDER HILL N/A       35  21  57 S20        N/A   WCI  24
* MONIDA PASS  N/A       25  25 100 SE16G24    N/A   WCI  12
* RAYNOLDS PAS N/A       28  12  51 S18G23     N/A   WCI  15
* WHITEHALL    N/A       39  27  62 SW10G20    N/A   WCI  32
* WISE RIVER   N/A       31  24  75 NW3        N/A
$$

MTZ009>010-012-014-046-048-049-054-192000-
EAST SLOPES AND CENTRAL MONTANA
CITY           SKY/WX    TMP DP  RH WIND       PRES   REMARKS
CUT BANK       PTSUNNY   37  30  76 SW8       29.76F WCI  31
GREAT FALLS    CLOUDY    43  28  56 SW14      29.81F
HELENA         PTCLDY    37  27  67 CALM      29.90F
* DEARBORN     N/A       45  25  45 S20G29     N/A
* MONARCH      N/A       38  19  46 S14G23     N/A   WCI  30
* PENDROY      N/A       37  28  70 S6         N/A   WCI  32
* ROGERS PASS  N/A       35  24  64 SE18G26    N/A   WCI  24
* SWEET GRASS  N/A       26  22  85 S14        N/A   WCI  14
$$

MTZ011-013-016-021-035-040-045-047-050-051-192000-
NORTH CENTRAL MONTANA
CITY           SKY/WX    TMP DP  RH WIND       PRES   REMARKS
HAVRE          PTSUNNY   30  25  82 E6        29.83F WCI  24
LEWISTOWN      PTSUNNY   37  25  62 E5        29.84F WCI  33
* N BAR RANCH  SUNNY     43  23  45 VRB3      29.86F
* CHESTER      N/A       27  24  88 N1         N/A
* DENTON       N/A       36  27  70 SE6        N/A   WCI  31
* JUDITH GAP   N/A       41  24  51 SE5        N/A
* LOMA         N/A       34  29  82 NE4        N/A
$$

MTZ017>020-022>027-061-062-192000-
NORTHEAST MONTANA
CITY           SKY/WX    TMP DP  RH WIND       PRES   REMARKS
GLASGOW        SUNNY     34  27  76 CALM      29.89F
GLENDIVE       SUNNY     39  27  62 S8        29.92F WCI  33
JORDAN         SUNNY     45  28  51 W5        29.88F
SIDNEY         SUNNY     36  28  73 S7        29.93F WCI  30
WOLF POINT     SUNNY     32  27  82 SW3       29.91F
* BEAVER HILL  N/A       38  25  60 SW12       N/A   WCI  30
* CIRCLE       N/A       39  30  70 SW2        N/A
* LINDSAY DVD  N/A       41  27  58 W8         N/A
* NAVAJO       N/A       31  31 100 N/A        N/A
* SACO         N/A       28  26  92 E2         N/A
$$

MTZ028>042-056>058-192000-
SOUTHCENTRAL AND SOUTHEAST MONTANA
CITY           SKY/WX    TMP DP  RH WIND       PRES   REMARKS
BAKER          PTCLDY    43  25  49 W14       29.92F
BILLINGS       PTSUNNY   37  21  52 SW14      29.91F WCI  28
LIVINGSTON     PTSUNNY   45  25  45 W21G29    29.87F
MILES CITY     SUNNY     39  27  62 SW5       29.91F WCI  35
* LAUREL APT   PTCLDY    37  16  42 S5         N/A   WCI  33
* ROUNDUP APT  PTCLDY    43  21  42 SW10       N/A
* ALZADA       N/A       36  23  59 NW1        N/A
* HYSHAM       N/A       40  17  39 W4         N/A
* LAME DEER    N/A       43  19  38 W9         N/A
* REED POINT   N/A       35  23  62 E2         N/A
* ROSCOE HILL  N/A       37  14  39 SE7G17     N/A   WCI  32
$$

REGIONAL REPORTS...DAKOTAS
CITY           SKY/WX    TMP DP  RH WIND       PRES   REMARKS
WILLISTON      FOG       25  21  85 SW5       29.92S WCI  19
DICKINSON      PTCLDY    43  28  56 SW8       29.88F
BEACH          SUNNY     39  27  62 SW7       29.91F WCI  34
CROSBY         FOG       23  23 100 NW3       29.92F VSB 1/2
WATFORD CITY   SUNNY     32  32 100 W7        29.89F WCI  25
BISMARCK       PTSUNNY   30  25  82 CALM      29.93F
GRAND FORKS    FOG       27  27 100 S9        30.03F VSB 1 1/2 WCI  18
FARGO          FOG       30  27  89 S13       30.04F WCI  20
BUFFALO SD     CLOUDY    39  23  53 W12       29.85F WCI  32
RAPID CITY     PTCLDY    50  19  29 CALM      29.94F
$$

REGIONAL REPORTS...WYOMING/IDAHO/WASHINGTON
CITY           SKY/WX    TMP DP  RH WIND       PRES   REMARKS
GILLETTE       SUNNY     39  19  45 SW14      29.93F WCI  31
SHERIDAN       CLOUDY    39  21  48 CALM      29.91F
CODY           PTCLDY    43  21  42 W15G29    29.91F
YELLOWSTONE LA PTSUNNY   27  21  78 VRB5      30.05F WCI  21
SALMON         CLOUDY    34  25  70 N3        29.99F
MULLAN PASS    SNOW      32  28  85 VRB5      29.83S VSB M1/4 WCI  27
SAND POINT     N/A       36  36 100 S3        29.90S
SPOKANE        CLOUDY    39  37  93 S9        29.87R WCI  33

$$



USA.gov is the U.S. government's official web portal to all federal, state and local government web resources and services.